EWG25T EDDL-LEMH

Flight info

Callsign EWG25T
Flight time 2h 4m
Altitude 24000
Route MODRU2T MODRU Z283 LNO/N0442F360 DCT RASCA DCT FAMEN/N0442F370 DCT AHVEC DCT RESMI UN857 DISAK DCT DIRMO DCT ETAMO DCT ADEKA DCT MOKDI DCT MEN DCT BADAM DCT KANIG DCT BGR L16 SARGO
Aircraft A320/M-SDE3FGHIRWY/LB1

Departure

Time 2026-04-14 15:36
Airport Düsseldorf Airport (EDDL)

Arrival

Time 2026-04-14 17:40
Airport Menorca Airport (LEMH)
Time Latitude Longitude Altitude Speed Heading
2026-04-14 15:03 51.28059 6.76708 131 ft 0 kts 276°
2026-04-14 15:24 51.28059 6.76715 130 ft 3 kts 275°
2026-04-14 15:24 51.28057 6.76757 125 ft 4 kts 282°
2026-04-14 15:25 51.28049 6.76781 126 ft 1 kts 342°
2026-04-14 15:25 51.28065 6.76786 125 ft 4 kts 23°
2026-04-14 15:25 51.28088 6.76803 128 ft 4 kts 19°
2026-04-14 15:25 51.28093 6.76806 129 ft 0 kts 17°
2026-04-14 15:28 51.28111 6.76815 130 ft 6 kts 17°
2026-04-14 15:28 51.28155 6.76833 129 ft 6 kts
2026-04-14 15:28 51.28222 6.76846 130 ft 11 kts
2026-04-14 15:29 51.28297 6.76858 129 ft 11 kts
2026-04-14 15:29 51.28371 6.76861 128 ft 11 kts 342°
2026-04-14 15:29 51.28431 6.76795 124 ft 10 kts 324°
2026-04-14 15:29 51.28488 6.76783 127 ft 8 kts 27°
2026-04-14 15:30 51.28553 6.76908 126 ft 21 kts 52°
2026-04-14 15:30 51.28646 6.77104 127 ft 22 kts 54°
2026-04-14 15:30 51.28742 6.77306 128 ft 24 kts 53°
2026-04-14 15:30 51.28846 6.77521 130 ft 25 kts 52°
2026-04-14 15:31 51.28950 6.77744 128 ft 25 kts 53°
2026-04-14 15:31 51.29057 6.77966 128 ft 26 kts 52°
2026-04-14 15:31 51.29157 6.78175 136 ft 18 kts 49°
2026-04-14 15:31 51.29239 6.78207 138 ft 9 kts 339°
2026-04-14 15:32 51.29257 6.78190 138 ft 0 kts 323°
2026-04-14 15:33 51.29258 6.78188 138 ft 2 kts 323°
2026-04-14 15:34 51.29309 6.78124 142 ft 10 kts 322°
2026-04-14 15:34 51.29333 6.78078 143 ft 0 kts 264°
2026-04-14 15:34 51.29327 6.78067 143 ft 2 kts 232°
2026-04-14 15:34 51.29320 6.78052 142 ft 1 kts 232°
2026-04-14 15:35 51.29314 6.78040 142 ft 1 kts 232°
2026-04-14 15:35 51.29308 6.78027 142 ft 3 kts 232°
2026-04-14 15:35 51.29194 6.77788 136 ft 65 kts 233°
2026-04-14 15:35 51.28774 6.76904 132 ft 131 kts 233°
2026-04-14 15:36 51.28140 6.75564 424 ft 157 kts 233°
2026-04-14 15:36 51.27466 6.74144 1110 ft 166 kts 234°
2026-04-14 15:36 51.26766 6.72619 1769 ft 175 kts 235°
2026-04-14 15:36 51.26039 6.71012 2336 ft 184 kts 236°
2026-04-14 15:37 51.25250 6.69292 2653 ft 205 kts 234°
2026-04-14 15:37 51.24376 6.67424 3179 ft 213 kts 233°
2026-04-14 15:37 51.23576 6.65411 3884 ft 217 kts 253°
2026-04-14 15:37 51.23618 6.63031 4580 ft 225 kts 292°
2026-04-14 15:38 51.24578 6.60914 4971 ft 249 kts 315°
2026-04-14 15:38 51.25954 6.59050 5329 ft 268 kts 322°
2026-04-14 15:38 51.27467 6.57297 6262 ft 269 kts 323°
2026-04-14 15:38 51.28993 6.55561 7168 ft 271 kts 323°
2026-04-14 15:39 51.30522 6.53775 8021 ft 274 kts 322°
2026-04-14 15:39 51.32030 6.51953 8872 ft 277 kts 321°
2026-04-14 15:39 51.33561 6.50048 9732 ft 280 kts 321°
2026-04-14 15:39 51.35099 6.48098 10533 ft 284 kts 321°
2026-04-14 15:40 51.36649 6.46112 11287 ft 287 kts 320°
2026-04-14 15:40 51.38161 6.44004 12024 ft 290 kts 309°
2026-04-14 15:40 51.39146 6.41196 12746 ft 293 kts 286°
2026-04-14 15:40 51.39341 6.37958 13471 ft 296 kts 263°
2026-04-14 15:41 51.38710 6.34870 14168 ft 300 kts 239°
2026-04-14 15:41 51.37317 6.32374 14812 ft 305 kts 219°
2026-04-14 15:41 51.35602 6.30356 15480 ft 308 kts 217°
2026-04-14 15:41 51.33857 6.28337 16141 ft 311 kts 217°
2026-04-14 15:42 51.31955 6.26622 16707 ft 320 kts 205°
2026-04-14 15:42 51.29797 6.25323 16833 ft 341 kts 202°
2026-04-14 15:42 51.27506 6.23990 16974 ft 359 kts 202°
2026-04-14 15:42 51.25119 6.22607 17369 ft 369 kts 202°
2026-04-14 15:43 51.22693 6.21199 17933 ft 373 kts 202°
2026-04-14 15:43 51.20274 6.19790 18507 ft 377 kts 202°
2026-04-14 15:43 51.17800 6.18345 19008 ft 381 kts 202°
2026-04-14 15:43 51.15308 6.16887 19492 ft 384 kts 202°
2026-04-14 15:44 51.12781 6.15414 19968 ft 388 kts 202°
2026-04-14 15:44 51.10229 6.13926 20424 ft 393 kts 202°
2026-04-14 15:44 51.07650 6.12424 20898 ft 397 kts 202°
2026-04-14 15:44 51.05044 6.10909 21346 ft 401 kts 202°
2026-04-14 15:45 51.02423 6.09338 21785 ft 404 kts 206°
2026-04-14 15:45 50.99977 6.07261 22213 ft 405 kts 215°
2026-04-14 15:45 50.97584 6.04876 22660 ft 409 kts 215°
2026-04-14 15:45 50.95158 6.02463 23116 ft 413 kts 215°
2026-04-14 15:46 50.92696 6.00098 23536 ft 417 kts 213°
2026-04-14 15:46 50.90151 5.97842 23921 ft 421 kts 211°
2026-04-14 15:46 50.87549 5.95661 24282 ft 425 kts 210°
2026-04-14 15:46 50.84912 5.93506 24640 ft 428 kts 210°
2026-04-14 15:47 50.82256 5.91334 24993 ft 431 kts 211°
2026-04-14 15:47 50.79599 5.89121 25348 ft 433 kts 211°
2026-04-14 15:47 50.76968 5.86882 25694 ft 436 kts 212°
2026-04-14 15:47 50.74303 5.84580 26035 ft 439 kts 212°
2026-04-14 15:48 50.71622 5.82244 26354 ft 441 kts 213°
2026-04-14 15:48 50.69216 5.79330 26720 ft 431 kts 233°
2026-04-14 15:48 50.67487 5.75543 27163 ft 426 kts 242°
2026-04-14 15:48 50.65879 5.71560 27339 ft 433 kts 242°
2026-04-14 15:49 50.64386 5.67457 27637 ft 431 kts 251°
2026-04-14 15:49 50.63425 5.63072 27958 ft 427 kts 261°
2026-04-14 15:49 50.62768 5.58452 28294 ft 429 kts 259°
2026-04-14 15:49 50.61483 5.54226 28641 ft 444 kts 238°
2026-04-14 15:50 50.59316 5.50713 29286 ft 444 kts 227°
2026-04-14 15:50 50.57124 5.47458 30511 ft 424 kts 231°
2026-04-14 15:50 50.55111 5.44168 31191 ft 414 kts 234°
2026-04-14 15:50 50.53230 5.40768 31625 ft 411 kts 237°
2026-04-14 15:51 50.51431 5.37285 31967 ft 411 kts 238°
2026-04-14 15:51 50.49658 5.33756 32271 ft 412 kts 238°
2026-04-14 15:51 50.47899 5.30263 32563 ft 414 kts 238°
2026-04-14 15:51 50.46093 5.26723 32859 ft 416 kts 237°
2026-04-14 15:52 50.44261 5.23201 33155 ft 418 kts 237°
2026-04-14 15:52 50.42395 5.19673 33443 ft 420 kts 236°
2026-04-14 15:52 50.40513 5.16152 33719 ft 422 kts 236°
2026-04-14 15:52 50.38623 5.12631 33996 ft 424 kts 236°
2026-04-14 15:53 50.36720 5.09080 34255 ft 425 kts 236°
2026-04-14 15:53 50.34817 5.05530 34433 ft 428 kts 237°
2026-04-14 15:53 50.32925 5.02003 34632 ft 430 kts 237°
2026-04-14 15:53 50.30999 4.98413 34827 ft 432 kts 237°
2026-04-14 15:54 50.27119 4.91184 35224 ft 436 kts 237°
2026-04-14 15:54 50.25165 4.87550 35409 ft 437 kts 237°
2026-04-14 15:54 50.23201 4.83905 35605 ft 439 kts 237°
2026-04-14 15:55 50.21254 4.80300 35763 ft 441 kts 237°
2026-04-14 15:55 50.19245 4.76584 35902 ft 444 kts 237°
2026-04-14 15:55 50.17272 4.72936 36017 ft 447 kts 237°
2026-04-14 15:55 50.15261 4.69218 36136 ft 450 kts 237°
2026-04-14 15:56 50.13237 4.65483 36274 ft 452 kts 236°
2026-04-14 15:56 50.11199 4.61733 36392 ft 454 kts 236°
2026-04-14 15:56 50.09148 4.57974 36545 ft 456 kts 236°
2026-04-14 15:56 50.07090 4.54206 36664 ft 458 kts 237°
2026-04-14 15:57 50.05022 4.50423 36789 ft 460 kts 237°
2026-04-14 15:57 50.02934 4.46649 36940 ft 462 kts 236°
2026-04-14 15:57 50.00764 4.42931 37129 ft 464 kts 234°
2026-04-14 15:58 49.96315 4.35746 37212 ft 465 kts 233°
2026-04-14 15:58 49.91786 4.28593 37214 ft 464 kts 233°
2026-04-14 15:59 49.87303 4.21393 37214 ft 464 kts 234°
2026-04-14 15:59 49.82442 4.14820 37219 ft 483 kts 211°
2026-04-14 16:00 49.75935 4.11637 37215 ft 494 kts 200°
2026-04-14 16:00 49.69415 4.08412 37213 ft 486 kts 212°
2026-04-14 16:00 49.66533 4.05805 37202 ft 475 kts 223°
2026-04-14 16:01 49.64046 4.02538 37201 ft 465 kts 233°
2026-04-14 16:01 49.59606 3.95312 37197 ft 465 kts 234°
2026-04-14 16:02 49.55139 3.88183 37194 ft 466 kts 233°
2026-04-14 16:02 49.50317 3.81457 37194 ft 480 kts 216°
2026-04-14 16:02 49.47222 3.79385 37193 ft 492 kts 199°
2026-04-14 16:03 49.43826 3.78482 37187 ft 497 kts 191°
2026-04-14 16:03 49.36934 3.77201 37186 ft 499 kts 190°
2026-04-14 16:04 49.30072 3.75991 37190 ft 501 kts 190°
2026-04-14 16:04 49.23147 3.74737 37183 ft 502 kts 190°
2026-04-14 16:05 49.16211 3.73452 37190 ft 502 kts 190°
2026-04-14 16:05 49.09266 3.72178 37195 ft 503 kts 190°
2026-04-14 16:06 49.02316 3.70914 37202 ft 503 kts 190°
2026-04-14 16:06 48.95409 3.69660 37196 ft 503 kts 190°
2026-04-14 16:07 48.88454 3.68396 37198 ft 503 kts 189°
2026-04-14 16:07 48.81503 3.67142 37201 ft 504 kts 189°
2026-04-14 16:08 48.74542 3.65880 37200 ft 504 kts 190°
2026-04-14 16:08 48.67578 3.64624 37203 ft 504 kts 189°
2026-04-14 16:09 48.60657 3.63388 37202 ft 504 kts 189°
2026-04-14 16:09 48.53687 3.62147 37199 ft 504 kts 189°
2026-04-14 16:10 48.46713 3.60890 37198 ft 505 kts 189°
2026-04-14 16:10 48.39779 3.59646 37203 ft 505 kts 189°
2026-04-14 16:11 48.32799 3.58406 37202 ft 506 kts 189°
2026-04-14 16:11 48.25806 3.57174 37209 ft 506 kts 189°
2026-04-14 16:12 48.18810 3.55953 37215 ft 506 kts 189°
2026-04-14 16:12 48.11813 3.54718 37214 ft 506 kts 189°
2026-04-14 16:13 48.04864 3.53485 37211 ft 506 kts 189°
2026-04-14 16:13 47.97870 3.52262 37211 ft 506 kts 189°
2026-04-14 16:14 47.90874 3.51059 37205 ft 506 kts 188°
2026-04-14 16:14 47.83886 3.49834 37206 ft 506 kts 189°
2026-04-14 16:15 47.76933 3.48626 37205 ft 506 kts 188°
2026-04-14 16:15 47.69932 3.47416 37204 ft 506 kts 188°
2026-04-14 16:16 47.62934 3.46196 37197 ft 506 kts 188°
2026-04-14 16:16 47.55935 3.44995 37197 ft 506 kts 188°
2026-04-14 16:17 47.48976 3.43803 37196 ft 507 kts 188°
2026-04-14 16:17 47.41973 3.42603 37199 ft 507 kts 188°
2026-04-14 16:18 47.34960 3.41398 37200 ft 507 kts 188°
2026-04-14 16:18 47.27944 3.40202 37196 ft 508 kts 188°
2026-04-14 16:19 47.20968 3.39021 37198 ft 508 kts 188°
2026-04-14 16:19 47.13942 3.37833 37201 ft 508 kts 188°
2026-04-14 16:20 47.06917 3.36646 37206 ft 508 kts 188°
2026-04-14 16:20 46.99895 3.35468 37204 ft 508 kts 188°
2026-04-14 16:21 46.92879 3.34293 37200 ft 507 kts 188°
2026-04-14 16:21 46.85923 3.33117 37218 ft 507 kts 188°
2026-04-14 16:22 46.78925 3.31943 37211 ft 506 kts 188°
2026-04-14 16:22 46.71936 3.30784 37207 ft 505 kts 187°
2026-04-14 16:23 46.64951 3.29632 37203 ft 505 kts 188°
2026-04-14 16:23 46.58016 3.28469 37205 ft 505 kts 188°
2026-04-14 16:24 46.51042 3.27304 37200 ft 505 kts 187°
2026-04-14 16:24 46.44058 3.26155 37202 ft 505 kts 187°
2026-04-14 16:25 46.37120 3.25015 37201 ft 505 kts 187°
2026-04-14 16:25 46.30137 3.23873 37202 ft 505 kts 187°
2026-04-14 16:26 46.23157 3.22727 37199 ft 505 kts 187°
2026-04-14 16:26 46.16180 3.21576 37197 ft 504 kts 187°
2026-04-14 16:27 46.09258 3.20454 37193 ft 504 kts 187°
2026-04-14 16:27 46.02279 3.19325 37192 ft 505 kts 187°
2026-04-14 16:28 45.95298 3.18195 37190 ft 505 kts 186°
2026-04-14 16:28 45.88275 3.17910 37189 ft 505 kts 180°
2026-04-14 16:29 45.81290 3.17822 37187 ft 505 kts 180°
2026-04-14 16:29 45.74254 3.17740 37190 ft 506 kts 180°
2026-04-14 16:30 45.67216 3.17653 37187 ft 506 kts 180°
2026-04-14 16:30 45.60182 3.17540 37188 ft 506 kts 180°
2026-04-14 16:31 45.53135 3.17444 37196 ft 506 kts 180°
2026-04-14 16:31 45.46139 3.17353 37193 ft 506 kts 180°
2026-04-14 16:32 45.39097 3.17265 37194 ft 506 kts 180°
2026-04-14 16:32 45.32058 3.17173 37183 ft 505 kts 180°
2026-04-14 16:33 45.25070 3.17081 37182 ft 505 kts 180°
2026-04-14 16:33 45.18038 3.16988 37171 ft 505 kts 180°
2026-04-14 16:34 45.11014 3.16901 37173 ft 505 kts 180°
2026-04-14 16:34 45.03980 3.16812 37169 ft 505 kts 180°
2026-04-14 16:35 44.96944 3.16720 37163 ft 506 kts 180°
2026-04-14 16:35 44.89955 3.16623 37132 ft 506 kts 180°
2026-04-14 16:36 44.82912 3.16526 37139 ft 506 kts 180°
2026-04-14 16:36 44.75862 3.16433 37134 ft 507 kts 180°
2026-04-14 16:37 44.68805 3.16337 37130 ft 507 kts 180°
2026-04-14 16:37 44.61797 3.16254 37132 ft 508 kts 180°
2026-04-14 16:38 44.54732 3.16258 37134 ft 508 kts 179°
2026-04-14 16:38 44.47671 3.16414 37126 ft 507 kts 178°
2026-04-14 16:39 44.40608 3.16573 37123 ft 508 kts 179°
2026-04-14 16:39 44.33593 3.16679 37116 ft 507 kts 179°
2026-04-14 16:40 44.26530 3.16763 37111 ft 507 kts 179°
2026-04-14 16:40 44.19475 3.16869 37110 ft 507 kts 179°
2026-04-14 16:41 44.12411 3.16997 37106 ft 508 kts 178°
2026-04-14 16:41 44.05401 3.16685 37099 ft 508 kts 185°
2026-04-14 16:42 43.98359 3.15833 37100 ft 508 kts 185°
2026-04-14 16:42 43.91321 3.14983 37090 ft 507 kts 185°
2026-04-14 16:43 43.84293 3.14145 37085 ft 507 kts 185°
2026-04-14 16:43 43.77251 3.13309 37088 ft 507 kts 185°
2026-04-14 16:44 43.70269 3.12483 37087 ft 508 kts 185°
2026-04-14 16:44 43.63233 3.11659 37090 ft 507 kts 185°
2026-04-14 16:45 43.52688 3.10423 37091 ft 507 kts 185°
2026-04-14 16:45 43.45716 3.09597 37087 ft 506 kts 185°
2026-04-14 16:46 43.38695 3.08771 37089 ft 506 kts 185°
2026-04-14 16:46 43.31675 3.07952 37081 ft 506 kts 185°
2026-04-14 16:47 43.24650 3.07134 37078 ft 507 kts 185°
2026-04-14 16:47 43.17668 3.06323 37091 ft 507 kts 185°
2026-04-14 16:48 43.10641 3.05505 37090 ft 507 kts 185°
2026-04-14 16:48 43.03598 3.04692 37072 ft 508 kts 185°
2026-04-14 16:49 42.96547 3.03878 37086 ft 509 kts 185°
2026-04-14 16:49 42.89541 3.03064 37090 ft 509 kts 185°
2026-04-14 16:50 42.82475 3.02246 37103 ft 510 kts 185°
2026-04-14 16:50 42.75404 3.01439 37109 ft 510 kts 185°
2026-04-14 16:51 42.69530 3.00766 37112 ft 510 kts 185°
2026-04-14 16:51 42.61300 2.99820 37122 ft 510 kts 185°
2026-04-14 16:52 42.54229 2.99015 37109 ft 510 kts 185°
2026-04-14 16:52 42.47153 2.99123 37107 ft 508 kts 169°
2026-04-14 16:53 42.41492 3.01111 37102 ft 505 kts 159°
2026-04-14 16:53 42.33712 3.04446 37079 ft 505 kts 160°
2026-04-14 16:54 42.27011 3.07274 37111 ft 504 kts 160°
2026-04-14 16:54 42.21453 3.09616 37097 ft 504 kts 160°
2026-04-14 16:55 42.14765 3.12432 37087 ft 503 kts 160°
2026-04-14 16:55 42.07005 3.15729 37080 ft 503 kts 160°
2026-04-14 16:56 42.01410 3.18102 37075 ft 503 kts 160°
2026-04-14 16:56 41.94811 3.21016 37074 ft 501 kts 154°
2026-04-14 16:57 41.88604 3.25186 37089 ft 498 kts 149°
2026-04-14 16:57 41.81454 3.30173 37085 ft 498 kts 149°
2026-04-14 16:58 41.76338 3.33734 37080 ft 498 kts 149°
2026-04-14 16:58 41.70185 3.37998 37080 ft 498 kts 149°
2026-04-14 16:59 41.64024 3.42268 37083 ft 499 kts 149°
2026-04-14 16:59 41.57853 3.46527 36697 ft 500 kts 149°
2026-04-14 17:00 41.54736 3.48676 35755 ft 506 kts 148°
2026-04-14 17:00 41.51606 3.50837 34933 ft 509 kts 148°
2026-04-14 17:00 41.48446 3.53018 34073 ft 514 kts 148°
2026-04-14 17:00 41.45305 3.55181 33266 ft 514 kts 148°
2026-04-14 17:01 41.42149 3.57343 32728 ft 507 kts 148°
2026-04-14 17:01 41.39019 3.59483 32104 ft 504 kts 148°
2026-04-14 17:01 41.35917 3.61608 31508 ft 499 kts 148°
2026-04-14 17:01 41.32842 3.63713 30909 ft 495 kts 148°
2026-04-14 17:02 41.29788 3.65798 30317 ft 491 kts 148°
2026-04-14 17:02 41.26756 3.67864 29681 ft 488 kts 148°
2026-04-14 17:02 41.23756 3.69910 29101 ft 482 kts 148°
2026-04-14 17:02 41.20831 3.71904 28549 ft 476 kts 148°
2026-04-14 17:03 41.17898 3.73903 27981 ft 471 kts 148°
2026-04-14 17:03 41.14929 3.75716 27445 ft 469 kts 156°
2026-04-14 17:03 41.11810 3.76967 26882 ft 467 kts 162°
2026-04-14 17:03 41.08697 3.78097 26375 ft 462 kts 162°
2026-04-14 17:04 41.05613 3.79212 25853 ft 457 kts 162°
2026-04-14 17:04 41.02569 3.80313 25366 ft 452 kts 162°
2026-04-14 17:04 40.99553 3.81404 24869 ft 446 kts 163°
2026-04-14 17:04 40.96611 3.82467 24385 ft 441 kts 163°
2026-04-14 17:05 40.93669 3.83527 23905 ft 435 kts 163°
2026-04-14 17:05 40.90767 3.84572 23374 ft 431 kts 163°
2026-04-14 17:05 40.87895 3.85606 22888 ft 424 kts 163°
2026-04-14 17:05 40.85064 3.86624 22407 ft 419 kts 163°
2026-04-14 17:06 40.82270 3.87631 21936 ft 414 kts 163°
2026-04-14 17:06 40.79510 3.88627 21448 ft 409 kts 163°
2026-04-14 17:06 40.76778 3.89611 20964 ft 405 kts 163°
2026-04-14 17:06 40.74069 3.90582 20483 ft 402 kts 163°
2026-04-14 17:07 40.71417 3.91531 20001 ft 399 kts 163°
2026-04-14 17:07 40.68746 3.92485 19512 ft 396 kts 163°
2026-04-14 17:07 40.66092 3.93434 19042 ft 394 kts 163°
2026-04-14 17:07 40.63453 3.94380 18552 ft 392 kts 163°
2026-04-14 17:08 40.60825 3.95321 18034 ft 390 kts 163°
2026-04-14 17:08 40.58221 3.96252 17556 ft 387 kts 163°
2026-04-14 17:08 40.55648 3.97171 17296 ft 378 kts 163°
2026-04-14 17:08 40.53153 3.98059 17161 ft 365 kts 163°
2026-04-14 17:09 40.50731 3.98918 17028 ft 354 kts 163°
2026-04-14 17:09 40.48386 3.99494 16897 ft 344 kts 178°
2026-04-14 17:09 40.46051 3.99134 16759 ft 334 kts 198°
2026-04-14 17:09 40.43990 3.97864 16636 ft 323 kts 217°
2026-04-14 17:10 40.42394 3.95889 16518 ft 310 kts 236°
2026-04-14 17:10 40.41364 3.93478 16381 ft 298 kts 253°
2026-04-14 17:10 40.40915 3.90896 16268 ft 285 kts 270°
2026-04-14 17:10 40.41010 3.88365 16137 ft 272 kts 285°
2026-04-14 17:11 40.41578 3.86086 16087 ft 263 kts 300°
2026-04-14 17:11 40.42547 3.84078 16090 ft 259 kts 314°
2026-04-14 17:11 40.43842 3.82467 16090 ft 256 kts 327°
2026-04-14 17:11 40.45378 3.81339 16092 ft 253 kts 340°
2026-04-14 17:12 40.47035 3.80565 16090 ft 253 kts 345°
2026-04-14 17:12 40.48727 3.79930 16087 ft 253 kts 346°
2026-04-14 17:12 40.50430 3.79339 16091 ft 253 kts 347°
2026-04-14 17:12 40.52135 3.78752 16092 ft 253 kts 347°
2026-04-14 17:13 40.53839 3.78159 16092 ft 253 kts 346°
2026-04-14 17:13 40.55541 3.77559 16092 ft 253 kts 347°
2026-04-14 17:13 40.57274 3.77209 16092 ft 252 kts 359°
2026-04-14 17:13 40.58993 3.77371 16092 ft 252 kts 12°
2026-04-14 17:14 40.60656 3.78079 16092 ft 252 kts 25°
2026-04-14 17:14 40.62142 3.79307 16092 ft 254 kts 38°
2026-04-14 17:14 40.63362 3.80990 16099 ft 256 kts 52°
2026-04-14 17:14 40.64236 3.83042 16090 ft 259 kts 66°
2026-04-14 17:15 40.64695 3.85348 16089 ft 263 kts 80°
2026-04-14 17:15 40.64703 3.87764 16089 ft 267 kts 94°
2026-04-14 17:15 40.64241 3.90149 16088 ft 272 kts 109°
2026-04-14 17:15 40.63313 3.92330 16090 ft 276 kts 124°
2026-04-14 17:16 40.61976 3.94113 16088 ft 280 kts 141°
2026-04-14 17:16 40.60283 3.95395 16090 ft 283 kts 156°
2026-04-14 17:16 40.58428 3.96273 16090 ft 284 kts 161°
2026-04-14 17:16 40.56527 3.96994 16084 ft 285 kts 163°
2026-04-14 17:17 40.54610 3.97649 16084 ft 285 kts 164°
2026-04-14 17:17 40.52690 3.98291 16084 ft 285 kts 164°
2026-04-14 17:17 40.50773 3.98945 16084 ft 285 kts 163°
2026-04-14 17:17 40.48830 3.99421 16080 ft 285 kts 180°
2026-04-14 17:18 40.46925 3.98925 16083 ft 284 kts 206°
2026-04-14 17:18 40.45342 3.97443 16084 ft 280 kts 232°
2026-04-14 17:18 40.44367 3.95271 16090 ft 274 kts 257°
2026-04-14 17:18 40.44141 3.92834 16090 ft 267 kts 280°
2026-04-14 17:19 40.44642 3.90539 16089 ft 261 kts 302°
2026-04-14 17:19 40.45745 3.88703 16090 ft 255 kts 323°
2026-04-14 17:19 40.47261 3.87556 16091 ft 251 kts 342°
2026-04-14 17:19 40.48903 3.86851 16090 ft 252 kts 345°
2026-04-14 17:20 40.50591 3.86233 16090 ft 252 kts 346°
2026-04-14 17:20 40.52285 3.85646 16090 ft 252 kts 347°
2026-04-14 17:20 40.53979 3.85060 16090 ft 252 kts 347°
2026-04-14 17:20 40.55680 3.84518 16087 ft 251 kts 354°
2026-04-14 17:21 40.57410 3.84598 16089 ft 250 kts 13°
2026-04-14 17:21 40.58999 3.85492 16089 ft 251 kts 34°
2026-04-14 17:21 40.60235 3.87124 16089 ft 255 kts 54°
2026-04-14 17:21 40.60928 3.89284 16089 ft 261 kts 76°
2026-04-14 17:22 40.60947 3.91651 16088 ft 267 kts 98°
2026-04-14 17:22 40.60236 3.93930 16089 ft 274 kts 122°
2026-04-14 17:22 40.58869 3.95686 16088 ft 280 kts 147°
2026-04-14 17:22 40.57065 3.96673 16087 ft 283 kts 161°
2026-04-14 17:23 40.55168 3.97408 16086 ft 284 kts 163°
2026-04-14 17:23 40.53262 3.98087 16084 ft 284 kts 163°
2026-04-14 17:23 40.51350 3.98753 16084 ft 284 kts 163°
2026-04-14 17:23 40.49440 3.99420 16052 ft 290 kts 163°
2026-04-14 17:24 40.47341 4.00157 15733 ft 333 kts 164°
2026-04-14 17:24 40.45061 4.00959 15412 ft 350 kts 163°
2026-04-14 17:24 40.42696 4.01791 15094 ft 353 kts 164°
2026-04-14 17:24 40.40328 4.02623 14794 ft 352 kts 163°
2026-04-14 17:25 40.37967 4.03455 14464 ft 351 kts 163°
2026-04-14 17:25 40.35617 4.04287 14150 ft 349 kts 163°
2026-04-14 17:25 40.33274 4.05118 13828 ft 347 kts 163°
2026-04-14 17:25 40.30953 4.05943 13497 ft 345 kts 163°
2026-04-14 17:26 40.28639 4.06761 13179 ft 343 kts 163°
2026-04-14 17:26 40.26369 4.07561 12869 ft 342 kts 163°
2026-04-14 17:26 40.24078 4.08367 12475 ft 339 kts 163°
2026-04-14 17:26 40.21806 4.09169 12167 ft 337 kts 163°
2026-04-14 17:27 40.19548 4.09968 11867 ft 335 kts 163°
2026-04-14 17:27 40.17306 4.10761 11568 ft 334 kts 163°
2026-04-14 17:27 40.15068 4.11551 11270 ft 332 kts 163°
2026-04-14 17:27 40.12842 4.12333 10967 ft 330 kts 164°
2026-04-14 17:28 40.10578 4.12738 10668 ft 329 kts 183°
2026-04-14 17:28 40.08391 4.12079 10289 ft 327 kts 206°
2026-04-14 17:28 40.06575 4.10405 10154 ft 314 kts 228°
2026-04-14 17:28 40.05350 4.08136 9993 ft 303 kts 242°
2026-04-14 17:29 40.04251 4.05819 9752 ft 299 kts 238°
2026-04-14 17:29 40.03011 4.03646 9463 ft 298 kts 232°
2026-04-14 17:29 40.01615 4.01645 9183 ft 298 kts 226°
2026-04-14 17:29 40.00073 3.99831 8875 ft 299 kts 220°
2026-04-14 17:30 39.98401 3.98214 8577 ft 300 kts 215°
2026-04-14 17:30 39.96636 3.96827 8287 ft 300 kts 209°
2026-04-14 17:30 39.94761 3.95652 7992 ft 299 kts 203°
2026-04-14 17:30 39.92804 3.94728 7700 ft 299 kts 197°
2026-04-14 17:31 39.90791 3.94059 7408 ft 298 kts 191°
2026-04-14 17:31 39.88747 3.93632 7116 ft 297 kts 186°
2026-04-14 17:31 39.86687 3.93433 6831 ft 297 kts 180°
2026-04-14 17:31 39.84628 3.93501 6545 ft 296 kts 173°
2026-04-14 17:32 39.82592 3.93843 6242 ft 294 kts 167°
2026-04-14 17:32 39.80631 3.94426 5965 ft 293 kts 161°
2026-04-14 17:32 39.78699 3.95251 5681 ft 291 kts 156°
2026-04-14 17:32 39.76856 3.96289 5403 ft 288 kts 150°
2026-04-14 17:33 39.75102 3.97537 5127 ft 286 kts 144°
2026-04-14 17:33 39.73457 3.98976 4860 ft 284 kts 139°
2026-04-14 17:33 39.71939 4.00574 4578 ft 278 kts 134°
2026-04-14 17:34 39.69325 4.04181 4044 ft 271 kts 123°
2026-04-14 17:34 39.68247 4.06133 3793 ft 269 kts 119°
2026-04-14 17:34 39.67293 4.08203 3534 ft 266 kts 114°
2026-04-14 17:34 39.66487 4.10346 3274 ft 263 kts 109°
2026-04-14 17:35 39.65838 4.12516 3144 ft 250 kts 105°
2026-04-14 17:35 39.65355 4.14605 3038 ft 235 kts 98°
2026-04-14 17:35 39.65419 4.16588 2942 ft 212 kts 63°
2026-04-14 17:35 39.66313 4.18001 2841 ft 202 kts 29°
2026-04-14 17:36 39.67656 4.18359 2753 ft 202 kts 355°
2026-04-14 17:36 39.69061 4.18304 2654 ft 203 kts
2026-04-14 17:36 39.70441 4.18596 2558 ft 204 kts 10°
2026-04-14 17:36 39.71841 4.18904 2466 ft 204 kts
2026-04-14 17:37 39.73237 4.19208 2423 ft 201 kts
2026-04-14 17:37 39.74598 4.19507 2218 ft 196 kts
2026-04-14 17:37 39.75933 4.19779 2002 ft 192 kts
2026-04-14 17:37 39.77244 4.20057 1739 ft 190 kts
2026-04-14 17:38 39.78509 4.20318 1672 ft 181 kts
2026-04-14 17:38 39.79759 4.20570 1384 ft 183 kts
2026-04-14 17:38 39.80969 4.20831 1226 ft 166 kts
2026-04-14 17:38 39.82057 4.21022 944 ft 155 kts
2026-04-14 17:39 39.83089 4.21216 730 ft 142 kts
2026-04-14 17:39 39.84059 4.21412 541 ft 140 kts
2026-04-14 17:39 39.85025 4.21611 351 ft 140 kts
2026-04-14 17:39 39.85938 4.21798 303 ft 121 kts
2026-04-14 17:40 39.86624 4.21940 299 ft 73 kts 10°
2026-04-14 17:40 39.86973 4.22012 309 ft 39 kts
2026-04-14 17:40 39.87196 4.22059 312 ft 27 kts
2026-04-14 17:40 39.87355 4.22098 312 ft 16 kts 20°
2026-04-14 17:41 39.87428 4.22188 312 ft 14 kts 77°
2026-04-14 17:41 39.87395 4.22296 311 ft 14 kts 143°
2026-04-14 17:41 39.87297 4.22316 310 ft 16 kts 189°
2026-04-14 17:41 39.87160 4.22288 307 ft 23 kts 189°
2026-04-14 17:42 39.86974 4.22251 299 ft 27 kts 189°
2026-04-14 17:42 39.86778 4.22210 297 ft 29 kts 189°
2026-04-14 17:42 39.86592 4.22173 295 ft 19 kts 178°
2026-04-14 17:42 39.86540 4.22257 300 ft 12 kts 97°
2026-04-14 17:43 39.86535 4.22358 297 ft 10 kts 99°
2026-04-14 17:43 39.86529 4.22410 296 ft 1 kts 98°
2026-04-14 17:43 39.86528 4.22417 297 ft 0 kts 98°
2026-04-14 17:43 39.86527 4.22422 297 ft 0 kts 98°